Find Kosmos-209

NORAD ID: 3158 Int'l Des: 1968-023 Owner: TSKBM Country: SU operational
LEOCIRCULAR

Live Position

Loading 3D Globe...

About Kosmos-209

Description loading...

Upcoming Passes

Passes for default location (London). Set your location on the main map for personalized predictions.

Altitude History

Loading altitude history...

Two-Line Element Set

1 03158U 68023A 26107.10043791 -.00000035 00000-0 38275-4 0 9995
2 03158 65.3337 354.6326 0050691 267.9969 91.5296 13.97930407962477
Epoch: Apr 17, 2026 • Age: 14 hours

Current Status

Altitude 900.6 km
Velocity 7.40 km/s
Sub-Earth Point -6.86°S, 97.47°W
Type other

Most Searched